FW7173 Weather Reports


time (UTC)temp
C
wind
direction
speed
KPH
gust
KPH
rain 1hr
cm
rain 24hr
cm
rain mn
cm
humidity
%
barometer
mb
20260504025721 9 181 0.0 3.2 0.00 0.00 0.00 45 1013.8
20260504025217 8 33 0.0 3.2 0.00 0.00 0.00 46 1013.7
20260504024714 8 85 1.6 3.2 0.00 0.00 0.00 47 1013.8
20260504024211 8 64 1.6 3.2 0.00 0.00 0.00 48 1013.9
20260504023708 8 264 0.0 3.2 0.00 0.00 0.00 49 1013.7
20260504023203 8 41 0.0 3.2 0.00 0.00 0.00 50 1013.6
20260504022700 8 62 1.6 4.8 0.00 0.00 0.00 50 1013.7
20260504022156 8 54 0.0 3.2 0.00 0.00 0.00 48 1013.7
20260504021654 8 185 1.6 3.2 0.00 0.00 0.00 46 1013.7
20260504021150 8 47 0.0 3.2 0.00 0.00 0.00 48 1013.7
20260504020647 9 43 4.8 4.8 0.00 0.00 0.00 49 1013.8
20260504020143 10 40 3.2 3.2 0.00 0.00 0.00 47 1013.8
20260504015640 10 2 4.8 4.8 0.00 0.00 0.00 45 1013.7
20260504015137 9 211 0.0 4.8 0.00 0.00 0.00 43 1013.7
20260504014632 9 28 1.6 3.2 0.00 0.00 0.00 50 1013.5
20260504014130 8 128 1.6 3.2 0.00 0.00 0.00 47 1013.7
20260504013627 8 57 1.6 3.2 0.00 0.00 0.00 48 1013.6
20260504013124 8 44 4.8 4.8 0.00 0.00 0.00 50 1013.5
20260504012621 8 68 3.2 4.8 0.00 0.00 0.00 49 1013.5
20260504012120 8 121 0.0 3.2 0.00 0.00 0.00 49 1013.6
20260504011616 8 51 3.2 4.8 0.00 0.00 0.00 49 1013.6
20260504011112 9 29 1.6 4.8 0.00 0.00 0.00 49 1013.2
20260504010608 9 38 3.2 4.8 0.00 0.00 0.00 48 1013.3
20260504010104 9 22 0.0 3.2 0.00 0.00 0.00 46 1013.2
20260504005601 10 37 3.2 3.2 0.00 0.00 0.00 47 1013.2
20260504005058 10 37 4.8 4.8 0.00 0.00 0.00 44 1013.1
20260504004556 10 101 0.0 3.2 0.00 0.00 0.00 44 1013.0
20260504004053 10 118 0.0 3.2 0.00 0.00 0.00 44 1013.1
20260504003549 10 49 1.6 3.2 0.00 0.00 0.00 43 1012.9
20260504003046 11 48 3.2 4.8 0.00 0.00 0.00 42 1012.9
20260504002543 11 347 0.0 1.6 0.00 0.00 0.00 40 1013.0
20260504002040 11 41 0.0 3.2 0.00 0.00 0.00 41 1012.6
20260504001538 12 51 3.2 3.2 0.00 0.00 0.00 37 1012.7
20260504001034 12 154 0.0 3.2 0.00 0.00 0.00 36 1012.6
20260504000531 12 142 1.6 3.2 0.00 0.00 0.00 35 1012.6
20260504000028 12 322 3.2 3.2 0.00 0.00 0.00 35 1012.5
20260503235527 12 59 1.6 3.2 0.00 0.00 0.00 34 1012.3
20260503235023 12 230 4.8 6.4 0.00 0.00 0.00 34 1012.5
20260503234521 13 41 1.6 4.8 0.00 0.00 0.00 35 1012.4
20260503234019 13 86 3.2 3.2 0.00 0.00 0.00 36 1012.3
20260503233515 13 63 3.2 3.2 0.00 0.00 0.00 34 1012.2
20260503233011 13 114 0.0 3.2 0.00 0.00 0.00 32 1012.2
20260503232508 13 84 1.6 3.2 0.00 0.00 0.00 33 1012.0
20260503232006 13 105 3.2 6.4 0.00 0.00 0.00 32 1012.2
20260503231504 13 70 4.8 6.4 0.00 0.00 0.00 32 1012.2
20260503231000 13 37 3.2 4.8 0.00 0.00 0.00 31 1012.1
20260503230456 13 194 0.0 3.2 0.00 0.00 0.00 31 1012.2
20260503225954 13 19 3.2 4.8 0.00 0.00 0.00 31 1012.2
20260503225451 13 47 3.2 6.4 0.00 0.00 0.00 31 1012.1
20260503224946 14 41 1.6 8.0 0.00 0.00 0.00 30 1012.0
20260503224443 14 23 4.8 6.4 0.00 0.00 0.00 29 1012.1
20260503223941 14 357 8.0 12.9 0.00 0.00 0.00 29 1012.1
20260503223439 14 2 9.7 9.7 0.00 0.00 0.00 30 1012.2
20260503222934 14 342 4.8 14.5 0.00 0.00 0.00 29 1012.1
20260503222433 14 13 4.8 8.0 0.00 0.00 0.00 29 1012.1
20260503221931 14 10 9.7 9.7 0.00 0.00 0.00 29 1012.1
20260503221429 14 349 8.0 14.5 0.00 0.00 0.00 28 1012.0
20260503220925 15 107 0.0 11.3 0.00 0.00 0.00 28 1011.9
20260503220421 15 232 8.0 11.3 0.00 0.00 0.00 27 1011.9
20260503215919 15 25 6.4 9.7 0.00 0.00 0.00 27 1011.9
20260503215416 15 23 1.6 9.7 0.00 0.00 0.00 26 1011.9
20260503214913 15 121 3.2 6.4 0.00 0.00 0.00 28 1012.0
20260503214410 15 129 4.8 8.0 0.00 0.00 0.00 27 1011.8
20260503213908 15 27 6.4 14.5 0.00 0.00 0.00 27 1011.9
20260503213406 15 11 8.0 9.7 0.00 0.00 0.00 27 1011.7
20260503212902 15 343 8.0 16.1 0.00 0.00 0.00 26 1011.9
20260503212400 15 341 14.5 16.1 0.00 0.00 0.00 27 1011.8
20260503211857 15 334 4.8 6.4 0.00 0.00 0.00 26 1011.7
20260503211354 16 0 19.3 20.9 0.00 0.00 0.00 25 1011.8
20260503210848 15 64 1.6 6.4 0.00 0.00 0.00 27 1011.9
20260503210346 15 10 12.9 14.5 0.00 0.00 0.00 26 1011.8
20260503205841 15 4 8.0 9.7 0.00 0.00 0.00 28 1012.0
20260503205338 15 352 14.5 24.1 0.00 0.00 0.00 25 1011.8
20260503204834 15 339 8.0 9.7 0.00 0.00 0.00 26 1012.0
20260503204332 15 59 4.8 12.9 0.00 0.00 0.00 28 1011.9
20260503203829 15 0 19.3 24.1 0.00 0.00 0.00 26 1011.8
20260503203326 15 336 6.4 16.1 0.00 0.00 0.00 27 1012.0
20260503202823 15 14 3.2 8.0 0.00 0.00 0.00 27 1011.9
20260503202321 15 359 4.8 12.9 0.00 0.00 0.00 28 1012.1
20260503201819 14 0 6.4 16.1 0.00 0.00 0.00 28 1012.1
20260503201316 13 337 9.7 9.7 0.00 0.00 0.00 29 1012.1
20260503200814 13 10 6.4 11.3 0.00 0.00 0.00 30 1012.2
20260503200309 13 37 6.4 20.9 0.00 0.00 0.00 28 1012.3
20260503195807 14 353 8.0 12.9 0.00 0.00 0.00 28 1012.2
20260503195304 13 13 9.7 19.3 0.00 0.00 0.00 28 1012.4
20260503194800 13 355 8.0 17.7 0.00 0.00 0.00 30 1012.6
20260503194256 13 357 4.8 19.3 0.00 0.00 0.00 29 1012.4
20260503193753 13 13 8.0 19.3 0.00 0.00 0.00 29 1012.5
20260503193249 13 2 12.9 19.3 0.00 0.00 0.00 28 1012.6
20260503192745 14 289 4.8 8.0 0.00 0.00 0.00 30 1012.4
20260503192240 13 128 3.2 9.7 0.00 0.00 0.00 30 1012.6
20260503191737 13 354 14.5 22.5 0.00 0.00 0.00 29 1012.6
20260503191234 13 9 9.7 14.5 0.00 0.00 0.00 32 1012.4
20260503190731 13 343 8.0 14.5 0.00 0.00 0.00 31 1012.6
20260503190227 13 22 6.4 12.9 0.00 0.00 0.00 29 1012.9
20260503185725 13 5 11.3 24.1 0.00 0.00 0.00 27 1012.8
20260503185220 13 2 9.7 19.3 0.00 0.00 0.00 28 1012.6
20260503184715 13 2 8.0 17.7 0.00 0.00 0.00 29 1012.5
20260503184211 13 13 3.2 19.3 0.00 0.00 0.00 30 1012.5
20260503183708 13 303 12.9 14.5 0.00 0.00 0.00 29 1012.9
20260503183205 12 179 3.2 19.3 0.00 0.00 0.00 29 1012.7
20260503182704 12 15 3.2 9.7 0.00 0.00 0.00 33 1012.8
20260503182202 12 27 14.5 17.7 0.00 0.00 0.00 31 1012.9
20260503181658 12 0 14.5 25.7 0.00 0.00 0.00 29 1012.9
20260503181155 12 338 8.0 27.4 0.00 0.00 0.00 29 1012.7
20260503180651 12 21 11.3 16.1 0.00 0.00 0.00 33 1012.7
20260503180150 12 14 11.3 30.6 0.00 0.00 0.00 28 1013.0
20260503175647 12 0 6.4 14.5 0.00 0.00 0.00 28 1012.9
20260503175144 13 80 3.2 12.9 0.00 0.00 0.00 31 1013.0
20260503174640 12 329 3.2 8.0 0.00 0.00 0.00 30 1012.7
20260503174137 12 48 3.2 8.0 0.00 0.00 0.00 31 1013.0
20260503173632 13 12 9.7 22.5 0.00 0.00 0.00 28 1013.0
20260503173129 12 232 11.3 20.9 0.00 0.00 0.00 31 1013.3
20260503172626 12 357 4.8 6.4 0.00 0.00 0.00 31 1013.1
20260503172124 12 357 6.4 16.1 0.00 0.00 0.00 31 1013.1
20260503171620 11 4 8.0 16.1 0.00 0.00 0.00 33 1013.3
20260503171117 12 345 11.3 22.5 0.00 0.00 0.00 31 1013.3
20260503170614 11 21 8.0 9.7 0.00 0.00 0.00 35 1013.1
20260503170110 10 330 4.8 19.3 0.00 0.00 0.00 35 1013.3
20260503151006 8 354 14.5 16.1 0.00 0.00 0.00 46 1014.2
20260503150502 8 335 6.4 11.3 0.00 0.00 0.00 44 1014.3
20260503131355 7 351 3.2 11.3 0.00 0.00 0.00 53 1014.1
20260503130853 7 358 16.1 20.9 0.00 0.00 0.00 53 1014.0
20260503130350 6 6 9.7 9.7 0.00 0.00 0.00 55 1013.9
20260503110744 5 8 6.4 11.3 0.00 0.00 0.00 59 1013.4
20260503110241 5 4 6.4 9.7 0.00 0.00 0.00 59 1013.4
20260503100207 5 12 6.4 9.7 0.00 0.00 0.00 59 1012.4
20260503090131 5 14 9.7 11.3 0.00 0.00 0.00 55 1012.2
20260503081602 6 15 9.7 12.9 0.00 0.00 0.00 53 1011.8
20260503081059 6 21 4.8 9.7 0.00 0.00 0.00 53 1011.9
20260503080554 6 7 6.4 8.0 0.00 0.00 0.00 54 1011.8
20260503072528 6 358 8.0 9.7 0.00 0.00 0.00 51 1011.7
20260503072026 6 21 9.7 14.5 0.00 0.00 0.00 52 1011.6
20260503071522 6 18 6.4 9.7 0.00 0.00 0.00 52 1011.7
20260503071019 6 19 8.0 11.3 0.00 0.00 0.00 52 1011.5
20260503070515 6 25 8.0 9.7 0.00 0.00 0.00 52 1011.5
20260503054939 7 15 3.2 6.4 0.00 0.00 0.00 52 1012.0
20260503054436 7 6 4.8 6.4 0.00 0.00 0.00 52 1011.9
20260503053933 7 5 4.8 8.0 0.00 0.00 0.00 51 1012.0
20260503053431 7 4 6.4 9.7 0.00 0.00 0.00 52 1012.1
20260503052927 7 8 6.4 9.7 0.00 0.00 0.00 51 1012.1
20260503052425 7 359 6.4 8.0 0.00 0.00 0.00 51 1012.0
20260503051921 7 13 8.0 9.7 0.00 0.00 0.00 51 1012.1
20260503051417 7 21 8.0 9.7 0.00 0.00 0.00 52 1012.2
20260503050914 7 23 6.4 6.4 0.00 0.00 0.00 51 1012.1
20260503050410 7 19 6.4 8.0 0.00 0.00 0.00 51 1012.1
20260503045908 7 24 6.4 8.0 0.00 0.00 0.00 51 1012.4
20260503045405 7 355 9.7 9.7 0.00 0.00 0.00 51 1012.4
20260503044902 7 12 8.0 9.7 0.00 0.00 0.00 50 1012.3
20260503044359 7 11 6.4 9.7 0.00 0.00 0.00 51 1012.6
20260503043856 7 10 4.8 8.0 0.00 0.00 0.00 50 1012.5
20260503043353 7 356 6.4 8.0 0.00 0.00 0.00 51 1012.4
20260503042849 7 18 8.0 9.7 0.00 0.00 0.00 49 1012.6
20260503042346 7 20 4.8 8.0 0.00 0.00 0.00 49 1012.8
20260503041841 7 16 6.4 8.0 0.00 0.00 0.00 49 1012.9
20260503041339 7 27 3.2 6.4 0.00 0.00 0.00 50 1012.8
20260503040837 7 21 6.4 6.4 0.00 0.00 0.00 49 1012.7
20260503040334 8 3 6.4 8.0 0.00 0.00 0.00 49 1012.7
20260503035831 8 22 6.4 6.4 0.00 0.15 0.15 48 1012.6
20260503035328 8 25 9.7 9.7 0.00 0.15 0.15 48 1012.8
20260503034825 8 15 6.4 8.0 0.00 0.15 0.15 48 1012.7
20260503034323 8 10 4.8 8.0 0.00 0.15 0.15 48 1012.6
20260503033820 8 358 8.0 8.0 0.00 0.15 0.15 48 1012.6
20260503033317 8 16 4.8 6.4 0.00 0.15 0.15 47 1012.7
20260503032815 8 18 6.4 8.0 0.00 0.15 0.15 47 1012.6
20260503032314 8 9 6.4 6.4 0.00 0.15 0.15 48 1012.8
20260503031811 8 7 4.8 6.4 0.00 0.15 0.15 47 1012.5
20260503031309 8 8 6.4 6.4 0.00 0.15 0.15 46 1012.7
20260503030804 8 23 4.8 6.4 0.00 0.15 0.15 47 1012.7
20260503030301 8 4 6.4 6.4 0.00 0.15 0.15 46 1012.7